RH
51 44 41 46 57 67 69 72 80 80 80 90 99 105 96 84 94 99 89 82 80 81 76 70 63 54 52 46 35 27 24 24 26 31 36 38 41 39 32 28 29 36 43 43 39 32 27 24 22 28 36 35 49 85 104 99 97 100 100 99 101 97 93 95 92 90 78 47 27 30 36 35 30 30 39 62 79 84 95 100 100 102 96 96 96 87
53 46 42 44 52 64 72 80 98 98 90 98 104 105 97 89 101 106 93 86 90 92 87 79 73 64 56 50 42 34 27 25 23 24 29 33 37 39 38 33 28 28 32 37 39 37 35 33 28 23 25 26 30 57 89 100 101 101 101 101 102 99 90 85 84 87 82 54 28 24 32 35 32 30 31 49 74 80 89 100 102 102 92 87 96 98
55 48 44 45 49 63 77 85 100 104 93 96 104 105 99 92 103 105 90 85 90 90 84 79 78 74 68 60 53 45 35 28 25 24 24 26 31 34 36 36 32 29 27 29 32 34 35 36 37 34 30 31 27 35 57 79 95 100 103 105 104 104 99 88 78 80 87 70 38 21 27 34 32 32 29 37 63 75 81 97 104 102 94 85 89 99
55 49 45 47 49 60 78 87 95 103 97 93 101 104 101 98 102 100 87 84 86 83 80 79 80 77 72 66 60 54 45 35 29 26 24 23 25 27 30 33 33 32 29 29 28 29 30 32 36 39 39 39 34 33 37 50 74 87 94 103 104 106 103 95 85 77 81 81 57 28 22 33 34 33 31 29 50 71 77 94 104 101 100 94 90 97
54 49 46 47 50 54 71 86 94 102 98 93 100 104 102 98 97 93 88 85 87 88 85 83 85 87 82 76 70 63 55 48 40 33 30 26 24 24 25 28 30 32 30 29 28 27 27 28 30 34 40 43 40 39 38 43 61 67 74 85 90 98 97 92 96 86 71 72 68 42 22 29 36 34 34 27 37 63 77 93 104 101 101 101 98 101
54 48 45 45 49 51 60 78 92 95 89 88 97 104 104 99 93 92 89 84 85 91 87 79 80 86 90 87 84 81 75 68 60 49 41 36 32 27 24 23 24 27 29 29 29 26 25 25 26 28 33 40 41 41 41 43 50 52 63 73 75 88 93 87 96 97 76 62 65 55 28 25 36 36 36 31 30 50 71 88 104 104 100 101 101 104
55 48 45 44 47 49 52 63 80 87 83 82 88 96 102 101 96 95 93 81 76 82 83 82 78 78 83 84 83 86 86 85 80 72 62 52 45 38 31 27 23 21 23 25 27 26 25 23 23 24 26 32 37 39 40 42 44 46 56 67 72 83 91 85 84 89 84 67 60 59 38 24 32 36 37 35 29 37 55 75 96 104 101 101 101 101
58 50 45 45 45 48 50 54 65 77 82 82 81 85 95 103 100 96 94 80 68 73 80 86 89 89 91 89 86 81 78 81 85 86 85 76 66 55 44 37 30 24 21 20 21 21 21 20 20 21 22 25 29 33 36 38 41 44 48 56 67 78 86 89 80 74 79 73 61 57 45 28 27 34 38 38 32 30 42 62 86 101 101 101 102 98
59 53 47 46 45 46 49 51 56 67 78 82 79 79 85 97 102 98 95 83 69 72 80 86 94 101 105 104 101 94 86 85 85 89 97 98 94 85 73 60 46 35 27 21 20 18 17 17 16 17 18 20 23 26 30 33 36 40 43 47 58 70 80 89 86 73 69 71 67 59 48 34 27 31 38 40 35 30 34 52 78 99 102 101 102 99
58 55 49 47 48 47 48 50 52 58 71 78 80 79 77 84 97 100 93 81 73 76 82 88 93 98 106 109 107 103 100 97 95 93 97 103 106 105 101 93 79 64 50 36 27 21 17 15 14 14 14 15 18 21 24 28 32 37 41 43 48 59 70 80 86 80 67 62 66 62 49 37 30 29 35 40 39 33 30 43 67 92 102 101 101 102
57 54 49 46 47 48 47 47 49 52 62 73 77 80 79 80 91 97 89 77 76 80 82 90 97 97 103 111 108 104 103 101 101 99 98 99 102 104 105 105 102 96 87 75 60 46 34 24 17 14 13 12 13 16 19 22 26 31 38 43 44 49 58 70 81 82 69 56 57 59 47 36 32 30 31 37 43 38 31 37 55 80 100 103 101 103
58 52 47 44 44 45 44 44 47 48 56 68 74 76 78 82 89 96 93 85 83 80 76 84 97 99 102 110 112 108 105 102 101 102 100 98 100 104 103 100 101 101 99 98 91 82 71 56 41 27 17 13 12 12 15 18 21 25 30 37 43 47 50 59 70 76 72 57 50 52 46 35 31 31 31 33 41 42 34 35 48 68 92 105 104 102
58 51 44 42 39 39 38 38 42 45 51 64 71 72 75 81 89 94 95 98 98 87 76 80 93 99 98 101 107 108 105 102 103 102 98 94 95 102 105 102 99 97 95 93 91 88 85 80 73 59 40 24 14 12 12 13 17 20 24 29 35 42 46 52 61 68 69 58 46 47 47 38 29 30 32 30 36 43 37 35 47 61 83 103 107 103
54 47 41 38 32 30 31 32 37 41 47 61 69 71 74 74 79 84 87 100 107 94 82 82 90 101 101 99 103 105 103 101 103 103 100 94 90 90 95 98 96 95 94 93 90 86 81 78 77 76 69 52 34 20 13 11 13 15 19 23 28 33 38 43 53 62 65 57 44 41 45 40 28 27 31 30 32 40 38 37 49 62 77 98 107 105
49 42 37 35 28 24 25 27 32 36 44 59 66 70 73 70 71 74 76 87 94 85 81 83 89 101 104 102 105 106 106 106 103 101 101 99 95 90 89 91 91 90 89 90 91 89 84 79 73 70 72 70 61 44 27 16 11 11 14 18 23 28 31 35 43 55 61 56 43 35 36 34 26 24 29 31 29 34 39 38 46 60 69 85 97 101
46 40 34 32 27 23 24 25 28 35 44 56 62 65 67 68 72 76 75 76 74 69 73 81 90 102 103 101 104 105 107 110 104 100 101 100 101 99 97 97 97 92 85 82 86 86 84 81 77 72 67 65 65 62 53 37 21 13 10 13 18 23 28 30 34 43 51 51 41 30 29 25 21 22 27 31 28 30 38 38 39 50 58 70 82 92
44 40 34 32 30 27 27 28 32 39 46 53 57 60 61 65 73 78 77 73 68 67 74 82 86 93 98 98 101 103 107 108 99 95 100 101 102 103 103 105 106 100 90 84 82 82 83 81 78 76 72 66 60 58 59 54 40 25 13 10 13 16 23 27 29 33 38 42 35 27 29 27 19 20 24 28 29 27 34 38 36 39 47 59 74 88
44 40 35 34 35 35 36 38 40 44 48 51 53 55 57 62 70 75 75 72 68 69 79 87 83 78 81 86 88 90 97 100 91 84 90 98 103 103 100 101 103 101 98 93 87 82 83 84 83 80 75 71 66 58 53 51 48 40 25 13 10 12 18 23 27 30 30 33 30 23 28 29 20 19 23 27 28 25 30 37 37 37 41 48 62 84
45 41 37 38 40 41 43 45 47 48 50 51 53 55 58 63 68 73 75 72 68 67 72 82 90 85 75 74 76 75 80 89 87 81 81 84 87 88 89 91 94 98 100 99 96 93 88 86 87 86 79 73 70 66 59 50 45 45 37 21 11 9 13 17 23 28 28 29 26 20 25 32 26 18 21 27 25 23 29 35 41 46 43 42 58 84
49 45 39 39 42 45 47 49 52 52 53 55 55 58 61 65 70 77 81 78 73 70 67 70 88 98 85 71 70 69 71 83 92 94 92 87 85 86 91 96 98 99 101 100 101 101 94 87 81 80 78 74 69 68 66 59 48 44 42 29 15 9 9 13 18 24 28 29 26 20 23 35 34 19 19 26 22 22 27 34 50 55 45 52 79 97
54 49 43 39 41 45 49 52 55 56 58 60 60 60 62 68 75 81 87 87 79 76 75 69 74 89 85 70 67 67 68 76 89 101 106 102 100 100 100 100 100 99 100 100 99 96 92 87 78 71 71 70 65 61 62 62 54 45 43 36 21 10 7 10 14 19 25 28 28 22 18 30 33 19 18 23 20 22 25 34 54 56 50 72 99 101
59 54 50 44 40 42 46 51 56 59 63 66 64 60 62 69 78 81 83 86 83 83 89 84 75 80 81 72 71 72 70 71 79 92 102 104 105 107 105 102 100 100 101 98 95 91 85 80 73 67 65 62 58 50 46 52 53 45 41 38 25 12 7 8 10 14 20 23 27 23 15 26 33 19 16 21 19 21 24 34 49 53 62 88 101 98
59 57 55 51 43 39 41 46 51 57 64 69 67 61 63 67 72 78 82 86 88 90 96 93 85 86 89 86 85 84 77 72 73 80 91 97 101 103 100 97 97 97 98 98 95 88 77 70 67 66 62 55 47 36 29 34 43 42 37 34 27 14 7 7 8 10 16 18 23 22 16 28 38 23 13 19 20 19 24 33 43 57 78 94 98 101
53 56 57 53 47 42 41 41 43 49 58 67 68 65 66 65 63 68 76 81 84 87 89 88 83 87 95 97 97 97 89 79 72 72 77 87 95 96 90 90 95 97 97 97 90 79 72 69 67 61 51 42 32 24 18 19 28 34 31 28 25 15 7 6 7 8 12 14 18 21 17 24 36 25 12 17 20 18 24 30 42 70 91 92 94 103
46 51 55 55 50 43 40 39 38 40 48 61 67 67 66 63 61 61 64 69 73 73 75 77 77 80 89 94 95 96 93 84 78 75 74 78 85 87 86 89 94 96 97 91 78 72 72 67 56 41 30 24 18 15 14 13 17 24 24 22 21 15 7 5 7 7 9 12 14 19 18 20 30 24 12 16 18 18 24 26 46 84 96 86 93 103
45 48 51 54 53 44 37 36 33 32 39 52 62 66 66 67 67 65 64 68 71 69 68 70 74 75 79 84 84 86 90 90 87 84 80 77 76 78 86 94 95 92 90 83 74 74 70 51 32 22 16 15 13 11 11 11 12 16 18 18 17 13 7 4 7 7 7 10 11 15 18 18 26 23 12 16 18 18 23 24 49 93 96 83 93 102
45 46 47 50 51 46 38 33 30 28 33 45 57 64 69 74 75 75 74 75 77 79 75 71 75 77 76 77 78 80 84 85 85 85 84 81 82 90 98 100 94 89 84 76 72 72 59 33 18 14 12 11 11 10 9 9 9 10 12 14 13 12 7 4 7 6 6 9 9 14 18 16 24 23 12 15 18 17 22 24 51 96 99 83 93 101
44 46 46 46 47 47 42 35 31 28 31 42 54 62 69 76 81 84 84 80 81 84 81 73 72 76 77 78 78 79 81 81 84 89 88 83 89 103 107 100 94 89 80 71 66 59 40 21 15 12 9 10 9 9 9 8 8 8 9 10 11 11 7 4 7 6 6 9 8 13 18 16 25 28 15 14 17 16 24 30 52 96 102 84 91 101
45 45 45 45 45 46 45 40 35 31 33 43 53 61 68 74 80 86 88 85 82 82 81 76 71 70 75 78 76 76 78 79 84 93 92 84 89 99 98 96 97 91 77 67 61 47 27 15 14 13 10 10 8 8 8 7 7 8 8 9 9 10 7 4 6 6 5 8 8 12 18 15 23 30 17 14 17 16 26 36 55 94 102 83 88 101
45 44 45 47 47 46 46 45 40 36 38 46 53 60 66 71 78 86 92 94 89 83 80 79 76 72 74 82 85 84 82 79 87 100 97 86 87 91 92 96 98 85 70 65 61 48 26 14 13 13 11 10 8 9 8 6 7 8 7 9 8 9 8 4 6 7 5 8 8 12 19 17 21 28 17 13 17 15 26 42 59 91 101 84 86 101
45 44 45 47 49 49 50 50 46 40 40 46 53 59 62 67 76 85 93 98 96 88 82 79 80 80 83 93 95 91 89 88 93 102 98 88 87 90 94 101 97 80 68 68 70 57 29 13 13 13 12 11 9 9 8 6 7 7 7 9 8 9 8 4 6 7 5 8 8 10 19 17 21 32 21 12 17 16 26 47 61 86 101 87 86 101
45 44 45 46 48 51 55 57 52 45 42 44 49 56 60 64 70 79 88 95 94 90 85 82 82 82 87 97 91 79 81 85 85 91 97 99 96 92 98 104 96 81 72 73 79 64 29 12 15 13 11 12 9 9 9 7 7 7 6 8 7 8 8 5 6 7 5 8 7 9 17 15 23 41 28 12 17 16 26 51 61 78 100 91 84 98
46 44 45 46 48 51 57 62 58 49 46 45 44 49 56 60 65 72 80 87 88 87 85 84 83 81 85 95 90 77 72 71 74 86 100 105 100 96 102 105 93 80 75 76 79 63 29 12 15 13 10 10 8 8 9 7 7 7 6 7 7 8 9 7 6 7 6 8 6 8 14 14 25 46 34 13 16 16 25 51 60 74 99 93 80 94
47 44 45 45 47 51 55 64 66 54 47 48 45 44 48 53 57 64 71 77 80 82 81 80 81 80 83 93 94 84 73 71 83 99 106 104 100 101 106 101 86 80 80 78 74 59 32 15 14 13 10 9 7 7 8 7 8 7 6 8 8 8 10 8 6 7 6 8 7 7 12 13 24 48 41 16 14 16 21 44 57 69 95 92 77 90
47 44 44 44 46 49 52 64 74 64 50 50 50 45 43 45 48 53 61 66 69 72 74 74 75 76 79 85 89 84 75 80 97 107 104 98 100 107 107 94 84 84 85 80 74 63 42 20 13 14 12 9 8 7 7 8 8 8 7 8 9 9 11 9 6 7 6 8 8 6 10 14 23 48 52 26 14 15 16 35 50 58 82 91 78 88
47 44 44 44 44 47 49 59 74 73 58 53 58 56 49 45 43 44 49 53 58 62 65 68 71 71 72 76 82 80 77 85 98 100 96 98 104 107 100 90 90 90 85 79 75 70 53 27 14 14 12 10 9 7 7 8 8 9 8 8 9 10 12 11 7 7 6 7 9 6 9 16 24 48 61 37 17 15 13 28 44 45 65 87 82 87
48 44 43 44 43 45 48 52 67 78 69 57 61 66 63 57 51 45 45 45 46 50 54 60 66 68 68 70 75 77 76 80 88 90 93 101 103 97 89 90 96 91 82 78 75 73 63 35 16 14 12 10 10 8 8 8 7 9 9 9 10 10 12 12 8 8 7 6 10 7 7 15 23 44 64 44 19 15 12 23 40 37 49 79 85 85
50 44 42 44 43 44 48 51 61 78 76 60 54 59 65 69 64 54 49 47 45 44 44 50 60 66 68 67 68 73 74 75 81 87 93 99 97 91 90 95 93 84 81 81 75 77 72 44 19 15 12 9 10 9 10 9 7 9 9 9 11 9 10 12 8 8 7 5 9 8 6 12 17 37 63 50 21 16 13 16 33 33 37 67 84 84
52 45 41 43 42 42 47 53 60 73 74 62 53 51 55 65 66 60 54 49 46 45 42 44 52 62 68 67 64 67 68 69 80 91 97 101 100 98 100 98 87 77 80 80 74 76 75 52 26 16 12 10 10 9 11 11 8 9 8 9 11 10 10 11 8 8 7 5 8 8 6 11 13 27 54 50 23 16 14 11 24 31 30 55 81 81
53 48 42 42 43 41 43 51 62 71 71 62 56 53 51 54 59 63 61 52 44 42 41 43 49 58 66 68 65 66 66 69 82 93 97 102 104 103 104 101 92 82 78 76 71 70 69 54 33 18 12 12 11 10 11 12 10 10 8 7 9 10 10 10 8 8 7 5 8 8 7 10 12 19 42 46 23 14 15 10 16 26 26 43 75 82
53 49 44 41 43 42 40 47 60 72 73 65 58 55 52 51 54 60 62 58 51 44 39 41 47 53 63 69 69 69 69 74 85 92 96 103 106 106 108 106 99 91 84 78 73 67 65 57 39 22 14 13 12 11 11 12 12 11 9 8 8 8 9 10 8 7 6 5 6 8 7 10 12 15 31 43 30 15 15 13 12 22 24 31 64 84
56 52 47 41 42 44 41 45 58 69 71 65 59 55 52 51 53 54 56 60 61 53 42 39 43 48 56 66 71 73 72 74 80 86 91 97 101 106 112 106 94 86 82 78 72 66 63 57 41 25 17 15 13 12 11 12 12 11 10 9 8 7 7 8 8 6 6 5 5 6 7 9 13 13 21 37 36 20 16 15 11 19 25 24 50 85
59 56 52 44 42 45 45 48 56 66 68 63 59 55 53 52 53 53 56 61 64 61 51 44 42 42 48 58 67 72 72 71 74 78 83 90 94 101 110 108 94 82 75 70 67 64 63 60 45 25 15 14 13 11 11 12 11 11 10 9 8 8 7 7 8 8 7 7 5 6 7 8 12 14 14 25 32 22 16 17 11 16 24 20 39 83
62 60 57 50 44 45 49 51 55 62 65 60 56 53 52 53 53 54 57 60 61 64 64 59 50 43 43 50 60 67 69 69 69 71 77 85 90 94 102 105 98 87 75 69 67 65 64 65 56 34 17 14 14 12 11 11 10 9 10 9 7 8 8 7 9 8 8 9 7 6 8 7 10 15 13 16 23 20 14 16 13 13 20 19 29 73
63 61 59 55 49 46 49 53 55 57 58 56 53 51 50 52 53 55 58 60 62 68 73 72 64 52 44 45 53 61 67 69 68 68 72 80 86 90 98 103 99 89 78 70 69 67 63 65 64 46 24 14 13 12 11 11 10 9 9 8 7 8 8 7 8 8 7 8 7 5 7 8 9 14 15 13 18 18 14 15 14 11 17 20 22 56
67 63 60 57 53 47 48 54 57 57 55 52 51 49 48 50 54 56 58 61 65 73 79 80 75 62 49 44 47 55 63 68 70 68 69 75 83 89 97 104 102 93 81 71 69 67 63 63 65 54 34 19 14 13 11 11 11 9 8 8 7 7 7 6 7 8 7 7 7 6 6 7 8 12 15 14 16 17 13 14 15 11 14 19 19 40
73 66 62 59 56 50 48 53 58 58 55 52 50 49 48 50 54 56 58 60 65 73 80 83 80 70 56 46 45 49 55 63 70 71 69 71 78 84 91 100 104 99 87 75 69 66 64 64 64 61 47 29 17 14 14 12 11 10 10 10 7 6 8 7 6 7 7 6 7 6 6 7 8 11 15 15 16 18 15 13 15 13 12 17 16 27
79 71 63 60 58 53 48 50 56 59 56 51 48 48 49 50 52 55 57 60 64 71 79 82 82 76 64 52 46 47 50 55 63 70 71 71 75 80 85 94 103 105 97 85 74 67 65 65 65 65 60 43 24 16 16 14 13 12 12 13 11 8 8 8 7 7 7 6 8 8 7 8 8 10 15 16 15 18 17 15 16 15 12 15 14 17
85 77 66 60 58 55 49 47 51 56 57 52 47 47 48 49 51 53 56 58 61 67 75 79 81 79 73 62 51 47 48 51 54 62 68 71 74 77 80 88 98 105 105 98 84 72 69 68 65 65 66 58 37 21 17 17 15 13 11 12 14 13 11 11 10 8 8 9 11 13 13 11 8 10 15 17 16 18 18 16 17 17 14 15 14 13
88 81 70 62 59 56 51 47 47 52 56 53 48 46 46 47 49 51 53 57 59 63 69 75 78 79 78 73 62 51 48 49 50 54 62 69 73 74 76 81 91 100 106 105 94 81 74 73 69 65 66 65 51 30 19 18 18 16 12 10 11 12 13 15 15 12 11 11 12 21 28 22 12 11 15 17 17 18 18 17 18 18 16 15 14 13
88 84 74 65 61 58 54 49 46 48 54 56 51 47 46 45 48 50 51 55 59 61 65 71 76 77 78 79 72 59 50 48 48 50 56 64 70 74 74 77 83 92 102 108 104 93 82 77 72 66 64 66 62 43 24 17 18 19 15 10 10 10 9 12 14 16 20 20 19 30 40 32 18 14 17 18 19 19 20 20 18 17 18 16 14 15
Wind_Speed
38 33 30 26 23 23 23 19 18 20 20 19 18 19 22 22 21 21 19 19 18 16 16 15 16 16 17 20 23 23 25 30 37 44 50 54 57 59 60 61 68 75 80 83 82 83 85 85 87 88 87 85 83 85 86 81 78 77 74 72 69 66 60 55 55 58 59 62 63 61 61 60 58 57 56 58 60 59 58 53 50 53 54 52 52 51
39 33 30 28 25 23 22 17 16 18 19 17 16 17 20 20 17 18 17 14 14 14 13 12 12 13 13 15 18 19 19 21 27 35 43 50 54 57 59 59 61 66 74 81 85 86 86 86 87 89 88 87 86 87 89 89 87 85 82 79 76 73 68 62 56 54 55 60 63 61 61 62 60 58 56 58 61 62 61 55 51 53 55 53 54 52
39 34 31 29 26 24 22 18 15 16 17 15 13 15 19 18 14 14 14 12 11 12 14 13 12 11 10 11 12 15 16 17 20 25 32 40 48 52 56 59 59 60 65 72 80 86 88 89 88 89 88 88 88 89 90 90 90 88 83 80 78 75 74 71 65 58 54 58 63 62 61 62 61 59 57 58 61 63 62 58 53 52 55 54 54 54
38 34 31 29 28 25 23 20 16 16 17 15 13 14 17 17 14 13 14 12 11 13 16 17 16 14 12 11 10 11 12 14 15 19 24 29 37 44 49 54 57 59 60 64 70 77 85 89 91 91 90 89 88 89 90 90 90 87 84 81 78 76 75 75 72 67 61 58 61 62 61 63 63 61 59 59 60 63 64 62 56 52 54 55 55 56
37 33 29 28 28 26 24 23 20 18 17 15 14 14 16 17 15 14 14 13 13 14 17 17 15 15 16 15 13 11 10 10 11 14 18 22 28 34 41 46 52 55 58 60 62 67 74 83 90 93 93 92 91 91 90 90 89 86 84 82 80 79 76 76 75 72 69 62 60 63 63 63 65 63 60 59 60 63 66 66 61 55 55 56 56 56
37 33 29 27 27 27 25 24 24 22 19 16 15 15 15 17 16 14 15 14 13 14 16 17 14 12 12 13 12 12 11 9 8 9 12 16 20 26 32 38 43 48 53 56 59 60 64 71 81 90 94 94 93 93 92 91 89 86 84 83 82 80 78 77 76 75 74 68 62 63 65 64 66 66 63 61 62 64 67 69 67 60 57 57 57 57
37 33 30 28 27 26 26 25 25 25 22 18 16 16 15 17 18 16 16 15 13 12 14 16 16 14 11 9 8 8 8 8 7 7 8 10 13 17 23 28 34 39 45 50 54 57 59 62 69 79 89 94 95 95 94 93 91 88 86 84 83 81 80 79 79 78 77 74 67 64 67 67 66 68 66 64 64 65 68 71 70 64 59 59 60 59
38 34 31 29 28 26 26 25 25 26 25 21 18 17 16 16 18 19 17 16 13 11 11 13 15 15 13 10 8 7 7 6 5 5 5 6 8 11 15 19 24 30 35 40 46 50 54 58 62 67 76 86 92 95 96 95 94 92 89 88 86 84 82 81 80 80 79 78 73 68 68 70 67 68 69 67 65 65 67 70 71 67 63 60 61 62
38 34 31 31 31 28 26 26 26 26 26 24 21 19 17 17 18 20 19 17 14 10 10 10 11 12 12 11 10 9 9 7 5 4 3 4 5 7 10 13 17 21 26 31 36 41 46 51 57 62 67 75 83 90 94 95 95 95 93 92 90 87 85 83 82 82 81 79 78 72 71 72 70 69 71 70 67 65 66 69 71 70 66 62 62 63
38 35 32 32 33 32 30 27 26 26 26 25 23 21 19 18 19 20 20 17 14 11 10 9 9 9 9 9 9 9 9 9 8 6 4 3 3 4 6 8 11 14 18 23 28 33 37 42 48 54 61 68 76 83 90 94 96 96 96 95 94 91 88 86 85 85 83 81 80 76 74 75 73 71 71 71 69 67 66 68 71 72 69 65 63 64
40 36 33 33 34 35 34 29 26 25 26 26 24 22 21 19 19 20 19 17 14 12 11 10 9 8 8 8 9 9 8 8 9 9 8 6 4 4 4 6 8 10 13 16 20 24 29 34 38 44 51 60 69 77 85 92 96 97 97 97 96 95 92 90 88 87 86 84 82 79 77 77 77 74 72 73 72 70 68 68 72 73 71 68 66 65
42 39 36 35 36 36 35 31 26 24 24 25 24 22 21 20 19 19 18 17 16 14 12 11 10 9 9 8 9 9 9 9 10 11 11 9 7 6 6 6 7 9 12 14 17 20 23 26 31 36 42 49 58 67 76 85 94 99 100 99 98 97 95 93 91 90 89 88 85 83 80 79 80 78 75 74 74 73 70 70 72 73 72 70 69 67
41 40 39 39 39 36 33 29 25 23 23 24 24 22 21 20 20 20 18 17 18 18 15 12 11 12 11 9 9 10 10 11 12 13 13 12 10 8 8 8 9 10 12 14 17 20 22 24 26 30 35 40 47 56 64 73 84 94 100 102 101 100 98 97 95 93 92 91 88 86 85 83 82 82 78 76 76 75 73 72 73 73 71 71 71 69
39 39 40 41 39 33 29 25 21 20 21 23 23 21 20 20 21 21 20 18 19 21 17 13 12 13 13 12 11 11 11 12 13 15 15 15 14 12 11 10 11 12 14 15 17 20 22 25 26 28 31 35 40 45 53 61 71 82 92 99 103 104 104 102 99 97 95 93 91 89 89 89 87 85 82 80 79 78 76 75 74 73 71 71 72 71
38 38 39 39 36 29 23 19 17 17 19 20 20 20 20 20 19 19 19 19 20 21 17 13 12 13 13 13 13 13 13 14 14 14 15 16 17 18 17 16 16 16 16 17 19 20 22 25 27 29 31 33 36 40 45 51 59 69 80 91 98 103 107 106 104 101 97 96 95 92 92 94 92 89 86 84 82 80 79 77 76 74 71 69 69 70
38 37 37 35 31 25 19 15 12 13 16 17 18 19 19 19 17 18 19 19 19 19 16 13 12 12 12 13 13 14 15 15 15 13 12 13 16 19 22 23 23 23 21 20 20 21 23 24 27 30 32 34 36 38 41 45 51 59 68 79 89 97 104 108 108 106 102 100 99 95 93 96 96 93 90 87 84 82 82 80 77 74 71 68 67 68
38 37 35 30 26 22 16 13 10 10 12 14 16 17 17 17 17 18 19 20 19 17 16 15 15 14 13 13 14 15 16 17 16 14 12 12 15 17 20 22 24 26 26 25 24 24 25 26 27 29 32 35 37 39 40 43 46 52 59 68 78 89 98 105 109 109 108 105 102 98 93 94 98 95 92 91 88 85 85 82 79 75 73 72 71 70
38 35 34 29 23 20 16 12 11 10 11 12 14 15 15 15 17 18 19 19 19 18 17 17 18 15 14 15 15 15 16 18 18 17 14 13 15 18 19 21 23 25 28 30 31 30 30 31 32 32 32 34 37 39 41 43 45 48 54 60 68 78 90 100 107 110 111 109 105 100 94 92 97 98 95 94 92 88 87 84 80 77 75 74 73 71
40 35 32 29 23 19 16 13 12 12 11 12 13 14 14 15 16 17 17 19 19 19 18 18 19 19 17 17 17 17 17 20 21 20 18 17 17 19 21 24 25 27 30 33 36 38 38 37 36 35 35 34 36 39 42 44 45 46 51 56 61 70 81 92 102 108 112 112 106 100 96 93 97 100 98 97 95 90 88 86 82 79 77 75 73 71
41 36 31 28 24 20 17 14 13 12 12 12 13 14 14 15 16 16 18 19 20 21 20 17 17 21 22 20 19 19 18 20 23 26 26 25 25 25 26 28 30 31 33 35 39 42 43 42 39 38 38 37 36 37 40 44 46 46 49 53 57 64 73 84 95 105 110 112 107 101 100 98 98 102 102 99 96 91 89 88 84 81 79 76 74 71
41 38 33 28 25 22 19 16 14 13 13 13 14 14 15 15 16 17 19 21 21 22 23 20 16 18 22 21 21 20 19 19 21 24 28 29 30 31 30 30 32 34 36 38 41 42 44 45 44 42 42 41 40 38 39 43 46 47 49 52 55 60 67 76 88 100 106 110 109 103 103 100 97 102 103 99 97 92 90 90 86 83 81 78 75 72
39 38 35 30 26 23 21 19 17 15 14 15 15 15 14 15 16 18 18 19 20 21 23 23 19 18 21 22 22 22 21 19 18 20 24 27 29 31 32 32 33 35 38 41 43 44 44 46 47 47 46 45 44 41 40 42 46 49 49 52 55 57 64 71 82 94 101 107 109 104 102 99 94 98 102 99 96 93 92 92 88 85 84 80 76 73
39 37 36 33 28 25 22 20 19 18 15 15 16 14 13 15 17 18 18 18 19 19 21 23 22 20 22 23 23 25 24 21 19 18 21 24 27 30 31 33 34 37 39 42 44 46 47 47 49 50 49 48 46 44 42 41 45 49 49 51 54 56 62 68 77 88 96 103 107 103 102 99 93 96 103 100 96 95 94 93 90 87 85 81 77 76
40 37 36 34 31 27 25 23 21 20 18 16 16 14 14 14 15 17 18 18 18 19 20 23 23 21 23 24 25 26 28 26 23 22 22 25 29 32 32 33 36 38 41 43 46 47 48 50 51 51 50 49 47 44 42 40 43 49 50 50 54 57 60 66 73 82 91 98 103 101 102 101 94 96 103 101 97 97 97 95 92 89 86 82 79 78
42 39 37 35 33 29 25 25 24 21 20 18 16 15 14 13 14 15 16 18 19 20 21 24 26 23 23 24 25 27 29 29 29 29 29 29 30 31 32 35 37 39 42 45 47 48 50 51 50 49 48 47 44 41 39 37 39 45 49 50 53 57 59 63 70 78 85 92 98 98 100 101 95 96 103 102 100 100 99 97 93 90 88 83 80 80
44 42 39 36 34 32 27 26 26 22 19 18 16 14 12 12 13 14 16 17 20 22 22 24 28 28 26 26 26 27 29 30 31 33 34 34 32 31 32 37 39 41 44 46 47 50 51 49 46 44 43 41 39 36 35 34 34 40 47 49 52 56 58 61 68 76 81 87 92 94 98 100 95 95 102 103 102 103 102 98 96 93 89 85 82 81
46 44 42 38 35 33 31 29 27 21 16 16 14 12 10 11 12 14 16 18 19 22 24 24 26 29 29 29 29 29 30 31 33 34 35 35 35 35 37 40 42 43 45 46 47 48 49 46 42 40 37 34 33 33 32 32 32 35 42 46 50 55 57 59 66 73 78 82 87 89 94 97 93 94 103 105 104 106 104 100 98 95 92 87 84 83
49 46 44 40 37 34 33 32 28 20 13 13 12 10 9 10 11 13 15 18 18 20 23 23 23 25 28 30 30 31 31 32 33 33 34 33 33 35 39 41 43 45 47 47 45 45 44 41 38 37 34 29 28 31 31 31 31 32 37 42 47 52 56 58 64 71 74 78 83 85 91 95 91 93 103 107 106 107 106 103 100 98 94 90 87 85
52 49 46 43 40 35 32 32 29 20 11 10 10 9 9 10 11 12 15 17 18 19 21 22 22 23 25 28 30 30 30 31 31 31 32 31 31 34 36 39 43 46 47 47 45 44 41 37 34 32 31 27 26 28 31 31 31 31 34 38 43 49 54 56 61 68 71 75 79 82 88 94 91 92 104 109 108 109 107 104 102 99 96 92 88 86
53 52 49 45 42 38 33 31 28 21 12 10 10 10 10 10 10 12 14 16 18 18 19 21 23 23 23 25 29 30 29 29 28 29 31 31 32 33 35 38 42 46 46 46 46 46 43 36 31 28 27 25 24 26 29 31 31 31 33 36 39 46 52 54 59 65 68 71 76 79 87 94 91 92 103 110 109 109 107 105 103 101 98 94 90 87
54 54 52 47 42 39 35 31 28 22 14 12 12 12 11 11 11 12 14 16 17 18 18 19 22 24 24 26 28 27 26 26 25 26 29 32 32 32 34 39 44 46 46 46 48 49 44 35 29 26 24 22 21 22 26 29 29 30 33 35 38 44 49 51 56 63 66 69 74 78 85 92 90 91 103 111 110 110 109 105 104 102 99 96 92 89
56 56 54 49 43 40 36 32 28 24 18 14 14 14 14 13 12 13 15 17 17 17 18 18 20 22 24 26 27 23 21 22 22 22 27 32 33 33 35 40 44 46 45 45 48 48 42 34 29 25 22 21 19 19 22 25 27 29 32 35 38 43 47 49 54 61 65 68 72 75 81 89 89 89 102 112 111 111 111 107 105 104 101 98 95 92
56 56 55 51 45 40 36 32 29 25 21 17 16 16 16 16 15 15 17 18 19 18 18 18 19 20 21 24 26 24 21 19 19 20 24 28 32 34 36 40 43 44 44 45 47 46 40 33 30 26 23 20 18 17 18 21 24 26 29 33 38 42 45 49 53 59 64 66 69 71 76 85 87 86 99 112 112 112 113 109 106 104 101 100 97 94
56 57 56 52 46 40 35 32 29 27 23 20 17 16 17 18 18 18 19 20 20 20 19 18 18 18 19 21 23 24 22 19 19 22 24 24 27 31 36 39 40 41 43 46 46 45 41 35 31 28 25 22 18 15 15 16 19 23 26 30 35 40 45 49 52 57 62 64 67 70 74 83 87 86 95 110 114 113 114 112 107 104 102 101 99 95
56 57 56 53 47 41 35 31 29 28 26 23 20 18 16 17 19 20 22 22 22 21 21 19 18 18 19 20 21 22 21 20 20 22 23 22 23 28 34 37 38 40 44 45 46 47 44 38 32 28 26 23 20 16 13 13 15 19 23 27 33 38 43 47 50 54 60 63 66 70 73 80 87 86 92 107 115 115 115 113 109 105 103 102 100 96
56 57 57 54 48 41 36 31 27 26 26 26 24 22 19 18 18 19 21 22 23 23 22 22 21 20 19 20 21 21 20 19 19 20 21 21 23 27 31 34 36 40 43 44 45 47 45 40 34 29 25 23 20 18 14 11 12 15 21 26 31 36 41 46 49 52 57 62 66 70 73 78 85 86 90 104 114 115 114 114 111 107 104 102 101 97
56 57 57 55 49 42 37 31 26 25 25 25 25 24 22 21 21 21 22 22 23 24 24 23 22 22 21 20 21 22 21 19 19 19 19 20 23 26 29 31 36 39 42 43 44 46 46 41 34 29 25 21 18 18 16 12 11 12 17 23 30 36 40 45 49 51 55 60 65 70 73 78 84 86 89 101 113 115 115 115 113 110 107 104 102 98
56 57 57 55 49 43 37 32 26 23 24 25 24 23 23 22 21 21 22 23 23 23 23 23 22 22 22 21 21 22 21 20 19 19 19 20 24 27 29 32 35 38 40 42 43 45 46 42 34 29 25 20 16 15 15 14 11 11 15 20 27 34 40 44 47 50 53 58 63 68 73 78 84 87 90 100 112 116 116 118 117 113 110 107 104 100
56 57 57 55 50 44 37 32 27 23 22 24 25 24 24 23 22 20 20 20 21 21 21 21 20 20 21 21 21 21 22 21 20 19 20 22 24 28 32 34 36 37 39 41 41 42 43 41 35 30 25 21 17 14 14 13 12 11 14 18 23 30 37 42 46 48 50 54 60 65 71 76 83 87 90 99 110 116 118 119 119 115 111 109 106 102
55 57 57 55 51 45 37 30 26 23 23 25 26 27 26 25 24 22 20 19 19 19 18 17 17 18 20 20 21 21 22 22 21 20 21 22 23 25 29 32 36 37 39 40 39 40 41 40 36 31 26 22 18 14 12 12 12 12 13 17 22 28 34 39 44 47 50 53 58 63 69 74 81 87 90 96 107 114 115 117 117 115 111 107 105 103
54 56 57 55 51 45 38 30 25 23 24 26 27 27 28 27 26 25 23 21 21 19 17 14 14 15 18 19 20 20 20 21 20 20 21 21 21 22 25 29 33 35 38 39 39 39 39 39 37 32 27 23 19 15 12 11 12 12 13 16 21 26 31 36 41 44 48 52 56 62 68 73 79 86 90 94 102 109 112 114 114 114 110 107 105 104
55 57 58 56 53 47 40 32 26 24 25 27 27 28 28 29 28 27 25 24 24 22 18 15 13 13 15 17 19 19 19 19 19 18 19 20 20 21 24 27 30 32 34 36 38 38 39 39 36 32 26 22 19 16 13 11 11 12 13 15 19 24 29 33 37 41 44 47 52 58 65 71 76 83 89 94 99 106 111 112 113 113 112 108 106 105
55 57 59 58 55 50 43 35 29 27 28 29 30 30 30 30 29 29 28 27 26 23 20 18 16 15 15 16 17 18 19 19 19 18 18 19 19 20 22 26 30 32 33 34 36 37 39 39 37 32 25 20 18 15 13 10 9 10 12 14 17 21 25 29 32 36 39 44 48 53 60 67 72 79 87 93 98 104 110 113 113 114 113 109 107 107
53 56 58 59 58 53 46 39 33 30 31 33 33 33 32 31 30 30 29 28 27 25 23 21 20 19 17 16 17 18 18 19 19 18 18 19 19 19 20 23 27 30 32 33 35 37 38 39 40 36 28 22 19 15 11 8 5 7 10 13 16 19 22 25 29 34 38 42 45 49 54 61 67 73 81 89 95 101 107 111 113 114 114 111 107 107
52 54 56 58 58 54 48 42 36 33 32 33 35 34 33 32 31 30 30 30 28 27 26 24 23 22 20 17 17 18 18 19 20 19 17 18 19 20 20 22 25 29 31 32 33 35 36 38 39 38 32 24 20 16 11 7 2 2 6 11 15 18 22 26 29 33 37 40 44 48 51 57 64 70 76 84 92 97 102 107 111 113 113 111 108 107
51 53 54 57 58 55 50 44 39 35 33 34 35 35 34 33 32 31 30 30 29 28 27 26 24 23 22 19 17 17 17 18 20 20 18 17 18 19 19 20 24 27 30 31 32 33 35 36 38 39 35 29 22 18 14 9 4 1 4 9 13 17 21 25 29 33 37 39 43 46 50 55 61 67 73 79 88 94 98 102 107 110 111 110 108 107
49 52 53 54 56 56 51 45 40 37 35 34 35 35 34 33 31 30 30 29 28 28 28 27 25 23 22 20 18 17 16 17 18 20 19 18 17 18 18 19 22 25 28 30 31 32 33 35 37 39 38 32 25 20 16 11 6 2 3 6 11 16 20 24 29 32 36 38 41 44 47 51 58 64 69 75 82 91 95 99 103 107 108 109 107 106
48 50 51 52 54 55 52 46 41 37 35 34 34 34 33 32 30 29 29 28 28 27 27 27 25 23 21 20 18 18 17 17 17 18 19 19 17 17 17 18 20 23 26 28 30 31 32 33 35 37 38 35 29 23 17 12 5 1 6 8 11 14 18 23 27 31 34 36 38 40 43 48 54 60 65 70 77 86 93 96 100 103 106 107 106 105
46 49 50 51 52 53 52 48 42 37 34 33 32 32 32 31 30 29 28 27 27 26 26 27 26 23 21 20 19 18 18 18 17 17 18 18 18 17 17 17 18 20 23 26 28 30 31 32 33 35 37 36 32 25 19 13 7 3 6 11 14 16 19 23 26 30 34 37 38 39 40 44 51 57 62 68 75 82 90 94 97 101 104 106 106 105
45 48 49 51 52 52 52 50 44 39 35 33 31 32 32 31 30 29 28 27 27 26 25 25 25 23 22 21 20 18 18 18 18 18 17 18 18 18 17 16 17 18 21 24 26 28 29 30 31 32 34 35 34 28 21 14 7 4 7 11 14 18 23 26 29 32 35 38 41 39 37 40 50 56 61 68 73 79 86 92 96 100 103 106 106 105
44 46 48 50 51 52 52 51 47 42 38 35 33 32 33 32 31 29 28 27 26 26 25 25 25 24 23 22 21 19 18 18 18 18 17 17 18 18 18 17 16 17 19 21 24 26 27 29 30 30 31 33 33 30 23 16 8 4 6 10 14 18 22 27 31 35 37 38 41 41 38 41 50 56 61 66 71 74 79 85 91 97 101 104 105 105
Wind_Direction
330 325 321 317 304 292 290 301 317 325 330 329 331 327 322 332 333 323 322 322 321 322 319 314 305 295 282 276 272 263 250 241 235 232 231 230 230 232 232 228 224 222 220 218 217 217 219 222 222 222 222 222 221 218 216 218 222 226 231 235 236 233 229 227 227 227 228 226 224 224 224 224 224 222 219 217 214 211 211 212 217 223 224 223 224 227
331 326 321 319 310 297 293 301 311 314 319 321 323 318 315 326 326 315 321 330 335 338 335 330 324 314 303 292 286 281 267 252 243 237 234 231 230 229 230 230 227 224 222 220 218 216 217 220 223 224 224 223 222 222 221 222 225 228 231 234 237 237 235 233 232 231 230 228 225 223 223 223 223 222 220 217 215 212 210 211 214 222 226 225 225 227
331 326 322 319 314 303 293 292 294 299 305 306 310 308 308 318 317 306 316 331 338 340 342 343 340 333 325 314 301 291 281 264 250 242 237 234 232 230 229 230 230 227 225 224 221 218 216 218 221 224 225 224 223 223 224 225 227 229 231 233 235 236 235 235 235 234 233 230 227 224 223 223 223 221 220 218 216 213 211 211 213 220 226 226 226 227
331 326 322 319 316 306 293 286 281 284 291 294 296 294 297 307 308 301 307 320 329 335 343 347 345 342 337 327 314 300 291 279 263 248 240 235 233 232 231 230 230 230 228 226 225 222 219 217 218 221 224 225 224 224 225 226 228 229 231 231 233 234 233 232 232 233 232 230 227 224 223 223 223 221 220 218 216 214 212 212 213 216 223 226 226 227
331 326 322 318 315 309 294 282 274 272 277 283 283 280 285 294 298 296 300 312 324 330 338 347 350 348 343 337 329 317 305 290 275 260 247 239 234 232 231 230 230 231 231 229 227 225 223 220 219 220 222 224 224 224 225 226 228 229 230 231 232 233 233 231 229 229 229 228 226 224 222 222 222 222 220 218 216 214 213 214 214 214 217 222 224 226
331 327 323 319 315 311 299 282 272 267 268 272 271 266 273 286 292 291 295 306 319 325 332 342 352 356 348 343 342 336 327 312 288 269 256 246 240 234 232 231 230 230 232 233 231 229 225 223 221 220 222 223 224 224 225 226 227 227 229 231 232 233 234 231 228 226 226 225 225 222 221 221 222 222 220 217 216 215 213 213 215 213 213 217 221 223
331 328 324 320 316 312 305 288 273 267 267 266 261 255 258 275 286 286 290 300 313 324 330 337 344 351 350 347 348 347 343 335 319 294 271 255 247 241 237 235 233 231 231 232 233 232 230 226 224 222 222 223 224 224 225 225 226 226 226 228 230 232 233 233 229 226 224 224 224 222 220 220 221 221 220 218 216 215 213 212 213 213 213 216 219 222
331 328 324 320 317 313 308 297 280 268 265 264 259 253 248 259 275 279 284 293 303 321 336 339 340 341 346 350 346 340 341 341 341 334 310 283 263 253 246 240 238 236 234 233 233 233 232 230 227 224 223 223 225 225 225 225 226 225 225 226 228 229 231 232 231 228 225 223 223 222 220 220 220 220 220 218 216 216 213 211 212 213 213 215 219 222
331 327 323 320 317 314 308 300 288 272 263 262 260 255 247 246 261 271 277 284 294 313 336 345 342 337 340 349 348 342 343 345 345 354 348 324 299 278 264 255 247 243 241 238 236 235 233 231 229 226 223 222 223 225 226 226 226 226 225 224 225 227 228 230 230 229 226 223 222 222 220 219 219 219 220 219 217 216 214 211 212 214 214 213 217 222
330 326 323 320 317 313 308 300 291 276 262 258 259 257 252 246 251 263 270 276 288 303 321 337 340 336 338 344 345 345 347 348 347 345 344 338 319 300 287 277 269 262 255 249 244 241 237 234 231 229 226 223 221 222 224 225 225 225 226 225 224 225 226 227 228 228 226 223 221 221 219 218 218 218 218 219 217 216 215 213 212 213 214 214 215 220
329 326 323 320 315 310 305 298 289 277 263 255 255 255 255 253 251 258 266 273 283 291 301 318 325 330 337 340 341 343 345 345 344 342 337 332 323 307 293 282 277 273 268 264 258 252 248 243 237 233 229 226 223 222 222 222 223 223 224 225 224 224 224 225 227 227 227 224 220 219 219 217 217 217 217 218 217 216 215 213 213 213 214 215 215 218
329 326 324 320 315 308 302 294 285 274 261 252 252 252 252 254 253 255 262 272 280 283 288 300 310 317 327 335 336 333 335 339 340 340 336 332 331 320 302 285 274 269 264 263 261 258 257 254 250 244 237 231 227 225 223 222 222 222 222 222 223 223 224 224 225 227 227 225 221 218 218 218 216 216 217 217 217 215 214 214 213 213 214 215 216 217
329 326 325 321 317 310 300 290 279 268 255 248 249 251 250 249 249 250 254 263 273 279 281 287 299 308 313 322 328 322 322 330 334 334 333 330 333 330 319 308 297 287 276 268 263 259 257 256 256 255 250 243 236 231 227 225 223 223 222 222 222 222 222 223 224 225 226 226 223 218 218 219 217 216 216 216 216 215 214 213 213 213 213 215 217 217
330 327 327 325 322 316 303 288 274 260 247 243 246 250 251 248 245 245 246 250 258 267 274 279 285 295 303 308 314 314 315 322 329 328 325 324 325 327 323 315 308 304 297 287 277 268 262 257 254 254 254 253 249 242 235 230 226 224 223 222 222 222 221 221 222 223 224 225 224 219 218 220 218 215 215 215 215 214 213 213 213 213 213 214 217 218
332 329 331 330 328 324 311 291 272 253 240 237 243 248 251 250 247 245 245 244 245 252 263 275 279 283 290 294 300 306 310 315 320 319 316 315 319 323 324 322 319 315 310 301 292 285 276 268 261 255 252 252 253 251 246 239 232 227 224 222 222 222 222 221 220 221 222 223 224 221 219 220 217 214 213 214 214 213 213 212 212 212 212 213 217 220
335 333 335 335 333 332 323 302 276 251 239 238 242 248 251 253 255 254 250 247 244 248 262 276 280 282 284 283 286 294 302 306 308 308 304 301 306 313 318 319 319 317 315 310 304 299 293 285 275 265 258 252 250 250 250 248 242 234 228 224 222 222 223 223 221 221 221 221 223 221 219 220 217 212 211 212 212 212 211 212 212 211 210 210 214 219
340 337 339 340 336 337 334 319 297 268 252 249 250 253 256 258 260 260 257 254 252 256 266 276 281 280 278 274 274 281 291 295 297 297 290 283 287 296 302 306 309 310 312 312 310 307 304 299 291 279 268 260 254 250 248 249 248 243 236 228 223 221 222 223 222 222 221 221 222 220 218 220 217 212 210 211 211 210 210 211 211 210 209 208 209 213
343 341 341 341 338 337 338 331 320 303 284 273 267 266 267 265 264 264 262 259 258 258 262 271 279 277 268 268 270 276 285 288 288 289 285 281 283 289 294 297 301 305 308 310 310 309 308 306 301 293 281 270 262 256 252 248 247 247 243 235 227 222 221 222 223 223 223 222 222 218 216 218 217 212 209 209 209 209 208 209 210 209 208 208 208 210
345 344 344 343 338 335 336 334 331 325 313 300 290 284 280 276 274 272 269 266 263 263 262 264 273 278 273 271 274 278 285 290 293 297 299 298 297 300 303 305 306 307 307 306 306 306 307 305 301 298 292 281 269 261 258 253 248 246 246 241 233 225 221 221 222 223 223 223 223 218 214 216 216 212 209 208 208 207 207 207 208 208 207 207 207 208
346 345 346 345 337 330 330 330 329 328 323 315 305 295 287 282 281 279 276 273 270 271 272 266 266 275 277 277 279 281 286 293 301 307 311 311 311 312 312 310 308 305 302 299 299 300 302 302 301 298 296 291 279 266 259 256 252 247 245 244 238 230 222 220 220 222 222 223 223 219 213 213 214 211 208 207 207 205 205 206 206 207 207 205 205 207
348 346 346 346 340 329 323 321 320 320 319 316 308 301 295 289 285 281 274 271 271 273 278 278 271 271 276 278 281 284 288 295 299 303 304 304 306 309 309 307 304 301 298 296 296 299 300 302 302 301 298 294 286 274 262 256 252 248 244 243 240 233 225 220 219 221 222 222 222 219 214 212 212 210 207 206 205 204 204 206 205 206 206 204 203 206
350 349 346 344 340 333 323 314 310 310 311 309 305 304 303 294 286 280 272 269 270 272 276 280 281 281 281 282 285 288 292 294 292 289 291 293 298 303 304 303 301 298 297 297 299 302 303 304 303 301 297 293 287 278 267 256 251 248 244 241 240 235 227 221 218 219 221 221 222 220 215 213 212 209 207 205 204 203 204 205 205 205 205 203 203 205
350 351 349 343 338 335 328 316 304 299 298 297 297 302 304 294 283 276 271 267 267 270 274 278 281 284 285 286 289 292 294 293 285 279 281 289 297 300 299 300 300 299 299 300 303 306 307 307 304 300 295 291 285 280 271 259 250 247 243 239 237 235 229 222 218 218 220 221 222 220 215 213 211 208 206 205 203 202 204 205 204 204 204 203 202 204
352 353 352 346 340 335 330 320 307 294 286 285 289 295 298 293 283 273 269 268 269 271 275 279 280 281 282 286 289 292 294 293 287 280 280 291 300 300 299 300 302 302 304 305 307 309 309 307 303 298 293 288 285 281 273 260 249 245 243 238 235 234 229 222 217 217 219 220 221 220 216 213 211 207 205 203 202 202 204 204 203 203 203 202 202 204
354 355 354 350 344 337 329 322 313 296 280 276 281 289 295 296 290 280 275 276 277 277 278 281 282 280 278 282 286 290 293 294 293 290 290 295 298 298 300 303 305 306 308 309 310 312 310 306 301 295 290 288 284 280 272 261 248 242 242 238 233 232 228 222 217 216 217 219 220 220 216 213 212 207 203 201 201 202 204 204 202 202 202 202 202 203
355 354 354 353 348 341 335 330 321 304 280 269 273 285 296 301 297 290 285 283 282 282 282 280 281 282 281 282 286 290 293 295 297 296 297 300 302 303 305 307 309 311 311 312 313 314 312 307 301 294 290 288 283 276 268 261 250 241 240 238 233 231 228 221 216 215 216 217 218 219 216 214 212 208 203 201 201 202 203 203 201 201 201 201 201 203
357 355 353 353 351 345 342 341 334 317 283 263 267 281 292 298 298 293 289 287 285 285 285 280 278 281 284 286 289 292 295 298 300 300 301 304 308 311 312 311 312 313 314 314 316 316 315 312 305 297 292 286 280 272 264 259 252 243 240 238 234 230 227 221 216 215 215 216 217 217 215 214 213 208 202 200 202 203 202 201 201 201 201 201 201 203
358 357 353 351 353 351 348 349 345 330 293 263 262 274 284 292 297 296 293 292 290 286 284 282 279 279 283 287 289 292 296 298 299 299 300 303 308 310 309 310 313 315 316 318 319 321 320 316 308 300 294 286 275 268 263 258 252 244 241 240 235 230 227 221 216 215 215 214 215 215 214 213 212 208 203 200 202 203 202 200 200 200 201 201 201 202
358 357 354 351 352 354 353 353 350 339 308 273 266 272 281 289 296 300 301 301 297 291 287 287 285 282 283 286 288 290 293 294 295 295 297 302 305 305 306 309 313 316 318 321 325 328 326 319 311 302 295 288 276 267 262 257 252 243 239 239 235 230 227 221 216 215 214 213 212 212 212 211 211 208 203 200 202 204 202 200 200 200 200 200 200 202
357 357 355 353 351 351 355 357 353 343 318 286 277 278 281 289 298 304 307 305 301 297 293 291 290 289 287 286 288 291 292 292 293 293 295 300 303 306 309 313 316 319 321 327 333 335 330 322 314 305 297 289 277 267 261 255 250 242 237 237 234 229 226 221 216 215 214 213 211 209 210 210 210 208 204 201 202 204 203 201 200 199 199 199 199 201
357 356 356 354 351 349 351 356 355 347 326 296 284 282 283 287 294 300 302 302 301 300 298 293 291 291 291 289 288 290 292 292 290 290 295 301 306 311 315 318 320 322 325 333 339 338 332 326 319 312 305 294 280 269 260 254 248 241 235 232 229 226 224 219 216 215 214 213 211 208 208 209 209 208 205 201 201 203 203 201 200 199 199 199 199 201
357 356 356 355 352 349 347 350 352 349 335 310 290 284 283 284 287 291 294 295 297 298 298 296 291 289 291 291 290 291 293 289 285 288 298 305 312 317 320 320 320 322 327 336 341 338 334 331 326 320 314 304 290 275 263 255 248 241 236 230 224 222 221 218 215 214 214 213 211 208 207 207 208 209 206 202 202 203 203 202 201 200 199 198 199 201
356 356 355 354 352 349 345 344 345 346 342 326 306 292 285 282 283 285 287 290 293 295 296 295 292 289 288 290 292 295 296 292 290 296 303 309 315 319 319 318 318 322 330 339 342 340 339 339 334 328 322 315 304 287 270 258 249 241 236 231 223 219 218 216 214 213 213 213 211 209 206 205 206 208 206 203 202 202 202 202 201 201 200 199 199 201
356 356 355 353 351 348 344 340 338 341 342 336 322 306 293 286 283 282 284 286 288 290 290 290 289 288 287 287 289 292 295 298 301 302 305 310 315 316 315 315 319 327 335 340 344 345 345 344 340 334 330 325 316 301 281 263 251 240 232 228 222 217 215 215 213 212 212 213 211 209 207 204 205 207 207 204 203 202 203 202 201 201 201 200 200 201
355 355 354 352 350 348 344 339 334 336 339 337 330 321 309 298 290 285 283 283 284 285 286 286 286 286 286 285 286 289 293 298 300 299 302 309 315 314 313 316 324 333 338 341 346 349 349 346 343 339 334 329 322 311 292 268 253 240 228 222 218 215 214 213 213 212 211 212 211 210 207 204 204 206 207 206 204 203 203 203 202 202 202 201 201 200
354 355 354 352 349 347 345 339 332 331 335 336 332 328 323 317 308 299 290 285 284 283 283 284 285 285 285 285 285 286 289 292 292 294 303 314 317 314 314 320 330 336 339 342 349 352 351 348 344 341 338 332 325 317 302 276 253 238 227 219 213 210 211 212 212 211 210 210 211 210 208 205 204 206 207 207 205 204 203 203 203 203 203 203 201 200
354 354 354 352 350 347 344 340 334 329 332 334 333 329 326 323 319 313 306 298 292 287 284 285 285 286 286 285 285 286 286 288 288 292 304 313 312 312 319 328 334 337 339 344 351 355 353 350 346 343 340 335 327 318 307 287 258 234 223 218 213 208 207 209 211 211 209 209 210 209 208 206 205 205 207 206 206 205 204 203 203 203 203 203 202 200
354 354 354 352 350 348 345 340 336 330 328 331 332 331 329 324 317 313 311 309 304 297 290 288 287 287 288 287 286 286 288 290 293 298 307 312 314 320 329 334 334 336 340 344 351 356 354 351 349 345 341 338 332 321 308 292 269 239 219 215 214 211 208 208 209 210 209 208 209 208 208 206 205 205 206 206 205 205 204 204 204 203 203 203 202 200
353 354 354 353 351 350 347 341 336 332 328 330 333 335 334 329 322 315 311 307 305 301 296 292 288 287 289 291 290 290 291 295 300 305 311 317 324 331 334 332 332 336 340 344 351 356 356 354 352 348 344 341 338 327 310 293 274 251 226 214 213 213 212 210 209 209 209 209 209 208 208 207 205 204 206 206 205 205 205 205 204 204 204 204 203 201
354 353 355 355 353 351 350 345 338 334 332 333 335 336 335 333 330 326 320 311 308 306 302 297 291 287 288 291 291 290 293 297 302 307 312 319 329 332 329 327 329 334 339 344 350 355 358 359 357 352 348 344 339 331 316 294 275 257 235 219 213 213 214 214 211 209 208 207 208 207 207 207 206 205 206 206 206 206 206 206 205 204 204 205 205 204
354 354 355 356 355 353 352 350 343 337 335 335 336 336 335 335 335 332 328 324 322 319 314 308 300 291 288 291 292 290 290 293 298 303 308 315 322 325 323 323 326 331 337 342 348 354 359 2 1 357 353 348 340 333 324 303 277 258 240 225 217 214 214 216 216 213 210 207 206 206 206 206 206 205 205 206 207 206 207 207 206 205 205 205 205 205
354 354 354 356 356 355 354 354 349 342 337 336 336 336 336 336 335 333 333 332 328 323 320 320 318 306 293 289 291 291 288 288 291 294 299 305 312 317 320 321 323 329 336 341 346 353 359 3 4 2 358 350 340 331 326 311 281 257 241 228 220 215 214 216 217 217 215 211 208 206 205 205 206 205 204 205 207 207 207 207 207 206 205 205 205 205
354 355 354 355 356 356 355 354 351 344 339 336 336 337 337 336 335 334 334 333 328 325 325 327 328 323 308 291 287 288 287 286 288 291 294 300 307 314 319 321 323 329 336 341 346 354 359 3 4 3 2 357 346 336 325 310 280 253 240 229 221 215 214 215 217 217 217 215 212 210 208 206 206 205 205 205 206 206 206 207 208 207 206 205 204 205
353 355 355 355 356 355 354 352 350 345 341 337 336 337 337 336 334 333 332 331 329 329 330 329 329 328 320 302 288 286 287 287 288 291 293 297 304 311 315 319 322 327 333 341 347 352 358 3 4 3 3 3 357 348 335 318 284 248 235 225 217 210 208 210 213 214 215 215 214 212 211 209 208 207 206 206 207 207 207 207 208 207 206 205 204 204
352 354 355 355 355 355 353 350 348 345 342 339 336 336 336 335 334 333 330 329 330 330 329 328 326 325 323 311 292 284 286 289 290 291 292 295 301 308 314 319 323 326 332 339 345 351 356 2 5 5 5 5 3 358 352 347 337 241 226 218 212 208 206 206 208 211 212 212 211 210 209 208 207 208 207 207 208 209 208 208 208 208 207 206 205 204
350 352 354 355 355 355 353 350 346 344 342 340 336 335 336 335 334 331 328 327 328 328 327 326 324 321 319 314 300 286 283 287 290 292 293 294 299 306 313 319 322 326 330 336 343 349 354 0 5 8 8 7 6 4 3 8 28 101 210 215 209 207 207 207 207 208 209 209 208 208 207 206 206 206 206 207 208 210 210 209 209 209 208 207 206 205
347 350 352 354 355 354 353 350 346 343 341 339 337 335 335 335 333 329 326 325 325 325 324 323 322 318 315 314 308 297 288 286 289 292 294 295 296 301 309 316 320 324 329 333 340 347 353 358 4 8 9 9 8 8 10 11 22 90 165 210 212 207 207 207 206 206 207 206 205 205 205 205 205 204 205 205 206 209 211 211 210 210 209 208 207 206
344 347 350 352 354 354 353 351 347 343 340 339 338 335 334 334 332 328 325 323 323 323 322 321 320 318 315 313 311 306 296 289 287 290 293 295 295 298 305 312 319 324 327 331 336 343 350 356 2 7 10 10 9 10 13 11 5 154 172 190 202 205 206 206 204 203 202 200 200 200 202 203 203 203 203 204 205 207 210 211 211 211 211 210 209 208
341 344 347 350 352 353 354 352 349 345 341 339 338 337 335 334 333 329 325 322 321 321 321 320 320 320 317 313 311 309 303 295 289 288 291 294 294 296 301 307 315 321 325 328 333 339 346 352 359 5 9 11 10 9 12 11 359 291 215 202 197 196 198 200 200 199 197 193 191 191 195 199 200 200 200 202 203 205 207 209 210 210 211 211 211 209
339 341 345 348 349 351 353 353 350 347 343 340 339 339 339 337 335 332 327 324 322 321 321 320 320 321 320 317 313 309 305 299 293 289 289 291 293 294 297 302 308 315 321 326 330 335 341 348 354 1 7 11 11 10 10 10 3 312 257 231 213 201 195 192 191 191 193 191 187 185 188 194 197 197 198 200 202 203 206 208 209 209 210 211 211 211
337 339 342 346 347 349 352 353 352 349 345 342 341 341 342 341 339 335 331 327 324 322 322 321 321 321 322 320 315 310 306 301 297 293 290 290 292 294 295 297 302 308 316 322 327 332 337 342 348 355 3 9 12 11 9 8 3 325 262 238 222 211 204 199 192 186 186 187 185 183 187 192 193 194 196 198 199 201 205 208 209 209 210 211 211 212